Regional Weather Roundup
Issued by NWS Jackson, KY

Home | Current Version | Previous Version | Text Only | Print | Product List | Glossary Off
Versions: 1 2 3 4 5 6 7 8 9 10 11 12 13 14 15 16 17 18 19 20 21 22 23 24 25 26 27 28 29 30 31 32 33 34 35 36 37 38 39 40 41 42 43 44 45 46 47 48 49 50

000
ASUS43 KJKL 030810
RWRJKL

EAST KENTUCKY HOURLY WEATHER ROUNDUP
NATIONAL WEATHER SERVICE JACKSON KY
300 AM EST SAT DEC 03 2016

NOTE: "FAIR" INDICATES FEW OR NO CLOUDS BELOW 12,000 FEET WITH
NO SIGNIFICANT WEATHER AND/OR OBSTRUCTIONS TO VISIBILITY.

* THESE REPORTS ARE NOT UNDER NWS QUALITY CONTROL AND MAY NOT
  REPORT WEATHER SUCH AS PRECIPITATION AND FOG.

KYZ079-080-083-085-087-088-110-112-115-119-120-030900
...EASTERN KENTUCKY...

CITY           SKY/WX    TMP DP  RH WIND       PRES   REMARKS
JACKSON        CLOUDY    35  30  82 CALM      30.32R
LONDON         CLOUDY    31  27  85 CALM      30.32F
SOMERSET*      CLOUDY    30  30 100 CALM      30.35S
WILLIAMSBURG*  CLOUDY    28  28 100 CALM      30.33R
MIDDLESBORO*   CLEAR     30  29  96 CALM      30.33S
HARLAN APT*    CLOUDY    32  28  86 CALM      30.30F
PIKE CO APT*   CLOUDY    34  31  87 CALM      30.31R
MOREHEAD APT*  CLOUDY    37  28  70 CALM      30.33S
ASHLAND*       CLOUDY    39  28  65 W3        30.31R
$$

KYZ035-036-041-042-044-050-067-078-099-030900
...CENTRAL KENTUCKY...

CITY           SKY/WX    TMP DP  RH WIND       PRES   REMARKS
MT STERLING*   CLOUDY    36  32  87 CALM      30.34F
FLEMING/MASON* CLOUDY    37  30  78 CALM      30.33F
DANVILLE*      CLOUDY    34  32  93 CALM      30.35R
FRANKFORT      CLOUDY    39  31  72 CALM      30.33R
LOUISVILLE     CLOUDY    41  29  62 W5        30.36R
LEBANON*       CLOUDY    37  32  81 CALM      30.35R
GLASGOW*       CLOUDY    31  31 100 CALM      30.35S
BOWLING GREEN  PTCLDY    33  29  85 CALM      30.36R
$$

KYZ091>093-OHZ055-061-077-WVZ005-015-034-035-042-030900
...SOUTHERN OHIO/WEST VIRGINIA...

CITY           SKY/WX    TMP DP  RH WIND       PRES   REMARKS
COVINGTON      CLOUDY    37  35  92 CALM      30.31S
COLUMBUS       MOCLDY    33  27  78 NW5       30.29R WCI  29
DAYTON         CLOUDY    36  30  79 W6        30.31R WCI  31
HUNTINGTON     CLOUDY    39  27  62 NW3       30.31S
PINEVILLE*       N/A     36  26  67 MISG      30.33R
BECKLEY        CLOUDY    32  25  75 NW10      30.23R WCI  24
BLUEFIELD      CLOUDY    30  24  78 W8        30.23  WCI  22
LOGAN CO APT*  CLOUDY    36  28  75 CALM      30.29R
$$

VAZ002-007-008-TNZ017-027-036-066-071-030900
...SOUTHWEST VIRGINIA/EAST TENNESSEE...

CITY           SKY/WX    TMP DP  RH WIND       PRES   REMARKS
WISE*          CLOUDY    32  28  86 CALM      30.28R
JONESVILLE*      N/A     28  28 100 CALM      30.33S
ABINGDON*      CLOUDY    37  29  75 NW3       30.29R
BRISTOL        CLOUDY    30  26  85 CALM      30.30S
MORRISTOWN*    MOSUNNY   34  30  86 NE5       30.28S WCI  30
SEVIERVILLE*   SUNNY     28  27  93 CALM      30.29F
KNOXVILLE      CLOUDY    36  31  82 CALM      30.28F
OAK RIDGE      MOCLDY    40  29  64 VRB3      30.32R
CROSSVILLE     MOCLDY    35  28  75 NE7       30.28S WCI  29
NASHVILLE      CLOUDY    40  31  70 N5        30.34R
$$

...KEY TO REMARKS...
VSB - VISIBILITY IN MILES
WCI - WIND CHILL INDEX
HX  - HEAT INDEX

$$



USA.gov is the U.S. government's official web portal to all federal, state and local government web resources and services.